Terug naar catalogus

STARLINK-4501

ActiefCommunicatieVLEO
NORAD 53553·PAYLOAD·🇺🇸 United States

Gelanceerd Aug 19, 2022 vanaf Cape Canaveral Space Force Station

Loading…

Volgende Passages (komende 24 uur)

TLE

VersSource: CelesTrak SupGP

Epoch: Sep 15, 2026, 02:20 UTC

1 53553C 22101AC  26258.09770833  .00020907  00000+0  13110-2 0  2580
2 53553  53.1589 293.0811 0001265  87.9022 229.2206 15.08826144    13

Volg STARLINK-4501 in realtime met AllMySat

Download on the App Store